{"data":{"norad_id":54662,"intl_designator":"2022-166W","name":"ONEWEB-0596","alt_names":[],"object_type":"PAYLOAD","status":"ACTIVE","operator":null,"country":"UK","launch_date":"2022-12-08","launch_site_code":"AFETR","launch_vehicle":null,"mission":null,"orbit_class":"UNKNOWN","rcs_meters":null,"size_class":null,"mass_kg":null,"dimensions":null,"purposes":["comms"],"wikipedia_slug":null,"has_3d_model":false,"image_url":null,"decayed_at":null,"tle_current":{"epoch":"2026-09-19T14:58:23.002176Z","epoch_age_seconds":97747,"freshness":"FRESH","line1":"1 54662U 22166W   26262.62387734 -.00000262  00000+0 -66683-3 0  9991","line2":"2 54662  87.9279 225.1863 0001990  79.8575 280.2784 13.21825458184018","mean_motion":13.21825458,"eccentricity":0.000199,"inclination_deg":87.9279,"raan_deg":225.1863,"arg_perigee_deg":79.8575,"mean_anomaly_deg":280.2784,"bstar":-0.00066683,"rev_number":18401,"period_min":108.94025313893,"perigee_km":1176.2518112466,"apogee_km":1179.2590564353,"semimajor_km":7555.8924338409,"source":"CELESTRAK","updated_at":"2026-09-20T09:00:44.745250Z"}}}